This is the latest recevied weather packets stored in our database for station/object DL6DJ-15. If no packets are shown the sender has not sent any weather packets the latest 10 day(s).
| Time | Temp. | Humidity | Pressure | Rain* | Wind** | Luminosity | Snow |
|---|---|---|---|---|---|---|---|
| 1777198950 | 25° C | 18% | 1023.8 hPa | - | - | - | - |
| 1777198649 | 25° C | 19% | 1024 hPa | - | - | - | - |
| 1777198349 | 25° C | 18% | 1023.9 hPa | - | - | - | - |
| 1777198049 | 25° C | 20% | 1024 hPa | - | - | - | - |
| 1777197748 | 25.56° C | 18% | 1024 hPa | - | - | - | - |
| 1777197448 | 25.56° C | 20% | 1024 hPa | - | - | - | - |
| 1777197147 | 25° C | 21% | 1023.9 hPa | - | - | - | - |
| 1777196847 | 25° C | 17% | 1024 hPa | - | - | - | - |
| 1777196547 | 24.44° C | 18% | 1024 hPa | - | - | - | - |
| 1777196246 | 23.33° C | 20% | 1024 hPa | - | - | - | - |
| 1777195946 | 23.33° C | 20% | 1024 hPa | - | - | - | - |
| 1777195645 | 23.89° C | 20% | 1024.1 hPa | - | - | - | - |
| 1777195345 | 24.44° C | 19% | 1024.1 hPa | - | - | - | - |
| 1777195045 | 24.44° C | 18% | 1024.1 hPa | - | - | - | - |
| 1777194744 | 25° C | 20% | 1024.1 hPa | - | - | - | - |
| 1777194444 | 24.44° C | 21% | 1024.2 hPa | - | - | - | - |
| 1777194143 | 23.89° C | 22% | 1024.1 hPa | - | - | - | - |
| 1777193843 | 24.44° C | 20% | 1024.1 hPa | - | - | - | - |
| 1777193542 | 24.44° C | 20% | 1024.2 hPa | - | - | - | - |
| 1777193242 | 25° C | 22% | 1024.1 hPa | - | - | - | - |
| 1777192942 | 25° C | 20% | 1024.1 hPa | - | - | - | - |
| 1777192641 | 25° C | 20% | 1024.1 hPa | - | - | - | - |
| 1777192341 | 24.44° C | 23% | 1024.1 hPa | - | - | - | - |
| 1777192041 | 25° C | 22% | 1024 hPa | - | - | - | - |
| 1777191740 | 25° C | 22% | 1024 hPa | - | - | - | - |
* Rain since midnight (hover to see other rain measurements)
** Current wind speed in m/s (hover to see current wind gust speed)